Location: Sternwarte ZA, Rosenfeld-Brittheim
(48.2889°N, 8.6789°E)
Time: 05:58:27
(UTC+02:00)

ISS - Pass Details

Date: 26 March 2020
Orbit: 417 x 423 km, 51.6° (Epoch: 29 March)

Event Time Altitude Azimuth Distance (km) Brightness Sun altitude
Rises 21:27:37 0° 288° (WNW) 2,362 1.2 -25.4°
Reaches altitude 10° 21:29:45 10° 293° (WNW) 1,498 0.0 -25.7°
Enters shadow 21:31:34 28° 306° (NW) 811 -1.7 -25.9°
